Flag for Netherlands Weather past 2 weeks in Zaandam, Netherlands

Now
48 °F

Partly sunny.


Feels Like: 42 °F
Forecast: 42 / 59 °F
Wind: 17 mph from North

Location: Amsterdam Schiphol Airport


UV Index: 3 (Moderate)

Visibility: N/A


Pressure: 30.04 "Hg

Humidity: 71%

Dew point: 39 °F

Location of ZaandamLocation

Historic Weather in Zaandam

°F

Zaandam temperature yesterday

Maximum temperature yesterday: 63 °F (at 1:55 PM)
Minimum temperature yesterday: 41 °F (at 3:25 AM)
Average temperature yesterday: 51 °F

Past Weeks' High & Low Weather Summary

 TemperatureHumidityPressure
High70 °F (Apr 3, 5:25 PM)100% (Apr 5, 5:55 AM)30.45 "Hg (Apr 5, 5:55 AM)
Low36 °F (Apr 16, 5:25 AM)34% (Apr 17, 2:55 PM)29.59 "Hg (Apr 3, 5:25 PM)
Average51 °F77%30.06 "Hg
* Reported Apr 3 5:25 PM — Apr 18 5:55 PM, Zaandam, Weather by CustomWeather, © 2014

Note: Actual official high and low records may vary slightly from our data, if they occured in-between our weather recording intervals... More about our weather records

Advertising

Historic Weather Conditions — Data for Previous 24 hours

 ConditionsComfort  
Time TempWeatherWind HumidityBarometerVisibility
5:55 PM
Apr 18
48 °FPartly sunny.17 mph71%30.04 "HgN/A
5:25 PM48 °FBroken clouds.14 mph71%30.04 "HgN/A
4:55 PM50 °FBroken clouds.18 mph62%30.04 "HgN/A
4:25 PM50 °FBroken clouds.17 mph67%30.04 "HgN/A
3:55 PM52 °FScattered clouds.14 mph62%30.04 "HgN/A
3:25 PM52 °FScattered clouds.15 mph72%30.04 "HgN/A
2:55 PM50 °FBroken clouds.13 mph71%30.04 "HgN/A
2:25 PM50 °FBroken clouds.14 mph76%30.01 "HgN/A
1:55 PM50 °FSprinkles. Broken clouds.15 mph76%30.04 "HgN/A
1:25 PM48 °FSprinkles. Broken clouds.16 mph76%30.01 "HgN/A
12:55 PM52 °FSprinkles. Broken clouds.16 mph67%30.01 "HgN/A
12:25 PM50 °FPartly sunny.15 mph67%30.01 "HgN/A
11:55 AM50 °FPartly sunny.15 mph67%30.01 "HgN/A
11:25 AM50 °FPartly sunny.14 mph62%30.01 "HgN/A
10:55 AM48 °FPartly sunny.16 mph66%30.01 "HgN/A
10:25 AM48 °FScattered clouds.13 mph71%30.01 "HgN/A
9:55 AM46 °FSprinkles. Scattered clouds.16 mph76%30.01 "HgN/A
9:25 AM45 °FScattered showers. Scattered clouds.7 mph87%30.01 "HgN/A
8:55 AM45 °FSprinkles. Broken clouds.16 mph76%29.98 "Hg4 mi
8:25 AM46 °FScattered showers. Broken clouds.6 mph76%29.98 "HgN/A
7:55 AM46 °FSprinkles. Broken clouds.10 mph71%29.98 "HgN/A
7:25 AM45 °FPassing clouds.9 mph81%29.98 "HgN/A
6:55 AM45 °FScattered showers. Passing clouds.9 mph81%29.95 "HgN/A
6:25 AM45 °FPassing clouds.9 mph81%29.95 "HgN/A
5:55 AM45 °FPassing clouds.9 mph87%29.95 "HgN/A
5:25 AM45 °FSprinkles. Passing clouds.8 mph87%29.95 "HgN/A
4:55 AM45 °FPassing clouds.9 mph87%29.95 "HgN/A
4:25 AM45 °FScattered showers. Passing clouds.13 mph87%29.95 "HgN/A
3:55 AM45 °FSprinkles. Passing clouds.8 mph81%29.95 "HgN/A
3:25 AM45 °FPassing clouds.9 mph81%29.95 "HgN/A
2:55 AM43 °FPassing clouds.8 mph87%29.95 "HgN/A
2:25 AM43 °FClear.8 mph87%29.95 "Hg10 mi
1:55 AM46 °FClear.10 mph76%29.95 "Hg10 mi
1:25 AM46 °FClear.7 mph87%29.95 "Hg10 mi
12:55 AM45 °FClear.9 mph87%29.95 "Hg10 mi
12:25 AM48 °FClear.13 mph82%29.95 "Hg10 mi
11:55 PM
Apr 17
48 °FClear.14 mph87%29.95 "Hg10 mi
11:25 PM50 °FPartly cloudy.14 mph82%29.95 "HgN/A
10:55 PM50 °FPassing clouds.12 mph82%29.95 "HgN/A
10:25 PM50 °FPassing clouds.12 mph82%29.95 "HgN/A
9:55 PM50 °FPassing clouds.12 mph88%29.95 "HgN/A
9:25 PM50 °FPartly sunny.10 mph88%29.95 "HgN/A
8:55 PM50 °FLight rain. Partly sunny.15 mph94%29.98 "HgN/A
8:25 PM50 °FLight rain. Overcast.15 mph94%29.98 "Hg4 mi
7:55 PM50 °FDrizzle. More clouds than sun.17 mph94%29.98 "Hg4 mi
6:55 PM54 °FSunny.16 mph72%29.98 "Hg10 mi
6:25 PM55 °FSunny.18 mph63%29.98 "Hg10 mi
Weather by CustomWeather, © 2014

See weather overview